Weather History for Los Angeles, CA

Change the Weather History Date:

Sunday, November 18, 2012

  Actual Average Record
Temperature  
Mean Temperature 63 °F 60 °F  
Max Temperature 67 °F 69 °F 88 °F (1989)
Min Temperature 59 °F 53 °F 41 °F (1964)
Degree Days  
Heating Degree Days 2 5  
Month to date heating degree days 44 66  
Since 1 July heating degree days 61 110  
Cooling Degree Days 0 1  
Month to date cooling degree days 24 18  
Year to date cooling degree days 735 549  
Growing Degree Days 13 (Base 50)    
Moisture  
Dew Point 57 °F    
Average Humidity 82    
Maximum Humidity 100    
Minimum Humidity 63    
Precipitation  
Precipitation 0.00 in 0.04 in 0.28 in (1973)
Month to date precipitation 0.32 0.58  
Year to date precipitation 5.08 10.24  
Since 1 July precipitation 0.47 1.43  
Sea Level Pressure  
Sea Level Pressure 30.12 in    
Wind  
Wind Speed 9 mph (West)    
Max Wind Speed 17 mph    
Max Gust Speed 21 mph    
Visibility 8 miles    
Events Fog    
T = Trace of Precipitation, MM = Missing Value Source: NWS Daily Summary

Daily Weather History Graph

Daily Weather History Graph

Search for Another Location

Airport:

Trip Planner

Search our weather history database for the weather conditions in past years. The results will help you decide how hot, cold, wet, or windy it might be!

Date:

Astronomy

Nov. 18, 2012 Rise Set
Actual Time 6:29 AM PST 4:48 PM PST
Civil Twilight 6:02 AM PST 5:14 PM PST
Nautical Twilight 5:32 AM PST 5:45 PM PST
Astronomical Twilight 5:02 AM PST 6:14 PM PST
Moon 11:02 AM PST (11/18) 10:08 PM PST (11/18)
Length of Visible Light 11h 12m
Length of Day
10h 18m
Waxing Crescent, 31% of the Moon is Illuminated
Nov 18
Waxing Crescent
Nov 20
First Quarter
Nov 28
Full
Dec 6
Last Quarter
Dec 13
New

Hourly Weather History & Observations

Time (PST) Temp. Dew Point Humidity Pressure Visibility Wind Dir Wind Speed Gust Speed Precip Events Conditions
12:53 AM 60.1 °F 59.0 °F 96% 30.10 in 7.0 mi West 3.5 mph - N/A   Overcast
1:53 AM 60.3 °F 59.0 °F 96% 30.09 in 8.0 mi SW 3.5 mph - N/A   Overcast
2:53 AM 59.7 °F 59.0 °F 97% 30.09 in 9.0 mi West 5.8 mph - N/A   Overcast
3:08 AM 59.0 °F 59.0 °F 100% 30.09 in 1.0 mi West 6.9 mph - N/A   Overcast
3:21 AM 59.0 °F 57.2 °F 94% 30.08 in 0.5 mi West 4.6 mph - N/A Fog Fog
3:53 AM 60.1 °F 57.7 °F 92% 30.08 in 1.0 mi West 4.6 mph - N/A   Overcast
3:59 AM 60.8 °F 59.0 °F 94% 30.08 in 3.0 mi West 3.5 mph - N/A   Overcast
4:06 AM 60.8 °F 59.0 °F 94% 30.08 in 6.0 mi West 3.5 mph - N/A   Overcast
4:12 AM 60.8 °F 59.0 °F 94% 30.08 in 8.0 mi NW 4.6 mph - N/A   Overcast
4:28 AM 60.8 °F 59.0 °F 94% 30.08 in 10.0 mi NNW 3.5 mph - N/A   Overcast
4:45 AM 60.8 °F 59.0 °F 94% 30.08 in 10.0 mi Calm Calm - N/A   Overcast
4:53 AM 60.3 °F 58.6 °F 94% 30.08 in 9.0 mi WNW 3.5 mph - N/A   Overcast
5:07 AM 60.8 °F 59.0 °F 94% 30.09 in 10.0 mi Calm Calm - N/A   Overcast
5:37 AM 60.8 °F 59.0 °F 94% 30.10 in 1.0 mi West 4.6 mph - N/A   Overcast
5:53 AM 61.5 °F 57.9 °F 88% 30.10 in 1.0 mi West 5.8 mph - N/A   Overcast
6:12 AM 60.8 °F 57.2 °F 88% 30.10 in 4.0 mi WNW 8.1 mph - N/A   Overcast
6:36 AM 60.8 °F 57.2 °F 88% 30.10 in 7.0 mi West 3.5 mph - N/A   Overcast
6:53 AM 61.0 °F 57.9 °F 90% 30.11 in 10.0 mi SSW 4.6 mph - N/A   Overcast
7:53 AM 63.0 °F 58.3 °F 85% 30.14 in 10.0 mi WSW 6.9 mph - N/A   Mostly Cloudy
8:09 AM 62.6 °F 59.0 °F 88% 30.14 in 10.0 mi WSW 4.6 mph - N/A   Mostly Cloudy
8:53 AM 64.0 °F 59.0 °F 84% 30.16 in 10.0 mi West 8.1 mph - N/A   Mostly Cloudy
9:53 AM 64.9 °F 57.9 °F 78% 30.16 in 10.0 mi WSW 5.8 mph - N/A   Scattered Clouds
10:53 AM 64.9 °F 52.0 °F 63% 30.16 in 10.0 mi West 13.8 mph - N/A   Scattered Clouds
11:53 AM 64.9 °F 54.0 °F 68% 30.14 in 10.0 mi West 15.0 mph - N/A   Scattered Clouds
12:53 PM 64.9 °F 55.0 °F 70% 30.13 in 10.0 mi West 15.0 mph - N/A   Partly Cloudy
1:53 PM 64.9 °F 53.1 °F 65% 30.12 in 10.0 mi West 15.0 mph - N/A   Scattered Clouds
2:53 PM 64.0 °F 54.0 °F 70% 30.13 in 10.0 mi West 17.3 mph - N/A   Scattered Clouds
3:53 PM 63.0 °F 55.0 °F 75% 30.13 in 10.0 mi WSW 11.5 mph - N/A   Scattered Clouds
4:53 PM 62.1 °F 55.9 °F 80% 30.13 in 10.0 mi WSW 12.7 mph - N/A   Scattered Clouds
5:53 PM 61.0 °F 55.9 °F 83% 30.14 in 10.0 mi WSW 8.1 mph - N/A   Partly Cloudy
6:53 PM 62.1 °F 55.9 °F 80% 30.15 in 10.0 mi WNW 10.4 mph - N/A   Partly Cloudy
7:53 PM 61.0 °F 55.0 °F 81% 30.15 in 10.0 mi West 10.4 mph - N/A   Clear
8:53 PM 61.0 °F 55.0 °F 81% 30.16 in 10.0 mi WSW 6.9 mph - N/A   Clear
9:53 PM 61.0 °F 55.9 °F 83% 30.18 in 10.0 mi West 9.2 mph - N/A   Clear
10:53 PM 60.6 °F 55.9 °F 85% 30.18 in 10.0 mi WNW 5.8 mph - N/A   Clear
11:51 PM 60.8 °F 55.4 °F 82% 30.19 in 10.0 mi WNW 5.8 mph - N/A   Partly Cloudy
11:53 PM 60.6 °F 55.9 °F 85% 30.19 in 10.0 mi West 9.2 mph - N/A   Partly Cloudy